Manchester, NH

2:25 AM EDT on April 24, 2018 (GMT -0400)
Manchester

Weather History for KMHT - January, 2014

Change the Weather History Date:

Tuesday, January 7, 2014

  Actual Average Record
Temperature  
Mean Temperature 16 °F 25 °F  
Max Temperature 26 °F 33 °F 55 °F (1930)
Min Temperature 6 °F 16 °F -8 °F (1942)
Degree Days  
Heating Degree Days 49 40  
Month to date heating degree days 279  
Since 1 July heating degree days 2647  
Cooling Degree Days 0 0  
Month to date cooling degree days 0  
Year to date cooling degree days 0  
Moisture  
Dew Point -7 °F    
Average Humidity 42    
Maximum Humidity 57    
Minimum Humidity 34    
Precipitation  
Precipitation 0.00 in 0.12 in 1.45 in (1905)
Month to date precipitation 0.88  
Year to date precipitation 0.88  
Snow  
Snow 0.00 in - - ()
Month to date snowfall  
Since 1 July snowfall  
Snow Depth 3.00 in    
Sea Level Pressure  
Sea Level Pressure 29.94 in    
Wind  
Wind Speed 12 mph (West)    
Max Wind Speed 20 mph    
Max Gust Speed 31 mph    
Visibility 10 miles    
Events Snow    
T = Trace of Precipitation, MM = Missing Value Source: NWS Daily Summary

Daily Weather History Graph

Daily Weather History Graph

Search for Another Location

Airport or City:

Astronomy

Jan. 07, 2014 Rise Set
Actual Time 7:16 AM EST 4:27 PM EST
Civil Twilight 6:44 AM EST 4:59 PM EST
Nautical Twilight 6:09 AM EST 5:35 PM EST
Astronomical Twilight 5:35 AM EST 6:09 PM EST
Moon 10:52 AM EST (1/7) No Moon Set
Length of Visible Light 10h 15m
Length of Day
9h 11m
Waxing Crescent, 45% of the Moon is Illuminated
Jan 7
Waxing Crescent
Jan 7
First Quarter
Jan 15
Full
Jan 24
Last Quarter
Jan 30
New

Hourly Weather History & Observations

Time (EST) Temp. Windchill Dew Point Humidity Pressure Visibility Wind Dir Wind Speed Gust Speed Precip Events Conditions
12:53 AM 26.1 °F 17.6 °F 12.0 °F 55% 29.53 in 10.0 mi West 8.1 mph - N/A   Partly Cloudy
1:53 AM 25.0 °F 13.1 °F 9.0 °F 51% 29.56 in 10.0 mi WNW 13.8 mph - N/A   Partly Cloudy
2:53 AM 21.0 °F 8.1 °F 8.1 °F 57% 29.60 in 10.0 mi West 13.8 mph 21.9 mph 0.00 in Snow Light Snow
3:53 AM 18.0 °F 3.1 °F -2.0 °F 41% 29.66 in 10.0 mi West 16.1 mph 26.5 mph 0.00 in   Overcast
4:53 AM 15.1 °F 1.1 °F -5.1 °F 41% 29.70 in 10.0 mi West 12.7 mph 27.6 mph N/A   Overcast
5:53 AM 12.0 °F -6.0 °F -7.1 °F 42% 29.75 in 10.0 mi West 19.6 mph 28.8 mph N/A   Mostly Cloudy
6:53 AM 10.0 °F -4.5 °F -6.0 °F 48% 29.79 in 10.0 mi West 11.5 mph 21.9 mph N/A   Partly Cloudy
7:53 AM 10.0 °F -4.5 °F -7.1 °F 46% 29.84 in 10.0 mi West 11.5 mph 25.3 mph N/A   Partly Cloudy
8:53 AM 10.0 °F -7.1 °F -7.1 °F 46% 29.89 in 10.0 mi West 16.1 mph 26.5 mph N/A   Partly Cloudy
9:53 AM 10.9 °F -3.4 °F -7.1 °F 44% 29.92 in 10.0 mi West 11.5 mph 25.3 mph N/A   Partly Cloudy
10:53 AM 12.0 °F -3.4 °F -8.0 °F 41% 29.94 in 10.0 mi West 13.8 mph 29.9 mph N/A   Partly Cloudy
11:53 AM 12.0 °F -2.7 °F -9.0 °F 39% 29.94 in 10.0 mi West 12.7 mph 25.3 mph N/A   Partly Cloudy
12:53 PM 12.0 °F -2.7 °F -11.0 °F 35% 29.95 in 10.0 mi West 12.7 mph 26.5 mph N/A   Partly Cloudy
1:53 PM 12.0 °F -5.1 °F -11.0 °F 35% 29.99 in 10.0 mi West 17.3 mph 31.1 mph N/A   Partly Cloudy
2:53 PM 10.9 °F -6.5 °F -11.9 °F 35% 30.01 in 10.0 mi West 17.3 mph 27.6 mph N/A   Partly Cloudy
3:53 PM 10.0 °F -6.5 °F -13.0 °F 35% 30.05 in 10.0 mi WSW 15.0 mph 25.3 mph N/A   Partly Cloudy
4:53 PM 8.1 °F -9.6 °F -15.0 °F 34% 30.09 in 10.0 mi West 16.1 mph 28.8 mph N/A   Partly Cloudy
5:53 PM 7.0 °F -5.7 °F -11.9 °F 42% 30.13 in 10.0 mi WSW 8.1 mph 19.6 mph N/A   Clear
6:53 PM 7.0 °F -5.7 °F -13.0 °F 40% 30.16 in 10.0 mi WSW 8.1 mph - N/A   Clear
7:53 PM 7.0 °F -5.7 °F -11.9 °F 42% 30.18 in 10.0 mi SW 8.1 mph - N/A   Clear
8:53 PM 6.1 °F -5.6 °F -11.9 °F 44% 30.19 in 10.0 mi SW 6.9 mph - N/A   Clear
9:53 PM 6.1 °F -5.6 °F -13.0 °F 41% 30.20 in 10.0 mi SW 6.9 mph - N/A   Clear
10:53 PM 6.1 °F -6.8 °F -13.0 °F 41% 30.22 in 10.0 mi WSW 8.1 mph - N/A   Clear
11:53 PM 6.1 °F -6.8 °F -11.9 °F 44% 30.22 in 10.0 mi WSW 8.1 mph - N/A   Clear